HXMT

Satellite information

Favourite Embed

Satellite Type and Status

PAYLOADIN ORBIT

Key statistics

Satellite HXMT at a glance.

Uptime

3060

Days in orbit

Revolutions

≈ 15.2

Per day

Orbit

LEO

Low Earth Orbit

Inclination

43.0

Latest

Satellite identification and parameters

Extended collection of information and parameters for HXMT.

Object identification

Identified? True

Debris? False

Object name: HXMT

International designator: 2017-034A

Object number (NORAD): 42758

Object ID (CCSDS): 42758

Country: PEOPLES REPUBLIC OF CHINA (PRC)

Current information (Y/N): Y

RCS size: LARGE

Orbital parameters

Period: 95.016 minutes

Inclination: 43.0157 deg

SMA: 6897.489 km

Apoapsis: 541.47 km

Periapsis: 497.239 km

RAAN: 18.3515 deg

Eccentricy: 0.00320627

Argument of periapsis: 135.3062 deg

Mean anomaly: 225.0377 deg

Mean motion: 15.15535824 rev/day

Mean motion (dot): 0.00008213 rev/day2

B* drag term: 0.00043193304 1/REarth

Two-line elements (TLE)

Creation date: Oct. 31, 2025, 3 a.m.

Reference frame: TEME

Reference center: EARTH

Epoch: Oct. 30, 2025, 4:46 p.m. UTC

TLE line 0: 0 HXMT

TLE line 1: 1 42758U 17034A 25303.69881970 .00008213 00000-0 43193-3 0 9999

TLE line 2: 2 42758 43.0157 18.3515 0032063 135.3062 225.0377 15.15535824462800

Live tracking on map

Real-time ground track for satellite HXMT.

In-orbit conjunctions

There are no conjunctions computed for HXMT, at the moment. Check back to stay up to date, as we update our databases every day.

Go to all conjunctions

Associated space launch

Hard X-ray Modulation Telescope (HXMT) is a Chinese X-ray space observatory. This will be China's first astronomy satellite, and it is tasked with observation of black holes, neutron stars and other phenomena based on their X-ray and gamma ray emissions.

HXMT was lifted into orbit during the mission ‘Long March 4B | Huiyan (HXMT (Hard X-ray Modulation Telescope))’, on board a Long March 4B space rocket.

The launch took place on June 15, 2017, 3 a.m. from Launch Area 4 (SLS-2 / 603).

For more information about the launch, click the button.

Launch to space Long March 4B | Huiyan (HXMT (Hard X-ray Modulation Telescope))
Long March 4B | Huiyan (HXMT (Hard X-ray Modulation Telescope))

Agency: N/A

Status: Launch Successful

Launch date: June 15, 2017, 3 a.m. UTC

Rocket: Long March 4B

Launch pad: Launch Area 4 (SLS-2 / 603)

Location: Jiuquan Satellite Launch Center, People's Republic of China

...

Latest news about this satellite

There are no fresh news available about this satellite. Check back as we update our databases every day.


Newsletter sign-up

Weekly statistics, charts and insights to help you stay on top of the space industry.